ONEWEB-0702, 61608

Orbit data source: Space-Track

ONEWEB-0702, 61608 is a payload satellite owned by Eut. One Web (UK) in LEO that was launched on Sun, 20 Oct 2024 UTC via an FALCON 9 launch vehicle from the Air Force Western Test Range (AFWTR). Payload-class satellites include a variety of spacecraft equipped with specific instruments for various scientific and technological missions. These include communications satellites like Starlink; space stations such as the ISS; scientific satellites like the Hubble; Earth observation satellites from companies like Planet Labs, Umbra, and HawkEye 360; GPS; miniature CubeSats for education and research; and military/defense satellites.

Loading next visibility...
Identifier
61608, 2024-188Q
Orbit
LEO
Country
Flag of UKUK
Related business
Manufacturer
One Web
Mission
Operational Commercial Communications
Bus & Motor
ARROW, Unknown motor
Mass
148 kg wet, ~140 kg dry
Launch date (UTC)
2024-10-20 (11 months ago)
Launch vehicle
FALCON 9
Launch site
Air Force Western Test Range (AFWTR)
Object type
Payload
Rocket body
Debris
Shape & HBR
Trap Box + 2 Pan, 2.5 m
Radar Cross Section
2.032 m², Large (>1 m²)

Expand to show TLE details & history
Last TLE update: 15 hours ago

TLE from 15 hours ago
0 ONEWEB-0702
1 61608U 24188Q   25260.02969359  .00000376  00000-0  10258-2 0  9996
2 61608  87.8709  75.4363 0001814 122.4775 237.6528 13.11413460 48685
Epoch: 2025-09-17T00:42Z
TLE epoch observation values (Epoch: 2025-09-17T00:42:45.526Z)
Latitude
-0.00005°
Longitude
68.5351°
Altitude
1,221.323 km
Speed
7.243 km/s
True Right ascension
05h 01m 44s
True Declination
0° 00' 00"
Sunlit
Object was in daylight at epoch
Visualization orbit readout
Latitude
Unknown
Longitude
Unknown
Altitude
Unknown
Speed
Unknown
Apparent Right ascension
Unknown
Apparent Declination
Unknown
Sunlit
N/A
Visualization observer readout
Local Sidereal Time
08:25:31
Azimuth
Unknown
Elevation
Unknown
Doppler factor
Unknown
Orbital elements
Apogee altitude
1,216.192 km
Perigee altitude
1,213.437 km
Semi-major axis
7,592.952 km
Eccentricity
0.00018
Inclination
87.8709°
RAAN
75.4363°
Arg. of periapsis
122.4775°
True anomaly
237.63524°
Mean anomaly
237.6528°
Eccentric anomaly
237.64402°
Mean motion
3.2804 °/min
Orbital period
109.74 mins
BSTAR
0.0010258
Loading maneuver chart data...
Computing Atmospheric mass density...
Loading historical data...
Loading historical data...
Loading historical data...
Loading historical data...
Loading historical data...
Loading historical data...
Loading historical data...

Documentation

Showing up to 5 results
|